Location: Township of South Roscoe
(37.9570°N, 100.1180°W)
Time: 21:55:24
(UTC+00:00)

N. Korean satellite - Visible Passes

Search period start: 22 January 2022 00:00
Search period end: 01 February 2022 00:00
Orbit: 447 x 491 km, 97.3° (Epoch: 22 January)

Date Brightness Start Highest point End Pass type
(mag) Time Alt. Az. Time Alt. Az. Time Alt. Az.
22 Jan10.211:03:19SE11:03:19SE10:56:19NEvisible
22 Jan 8.6 12:29:37 10° NNW 12:37:21 - SW 12:30:22 15° NNW visible
23 Jan 8.5 12:00:08 10° N 12:07:56 - SSW 12:01:17 19° N visible
24 Jan 9.0 11:31:08 10° NNE 11:38:28 - S 11:32:11 18° NE visible
24 Jan 8.7 13:06:09 10° NW 13:06:15 10° NW 13:06:15 10° NW visible
25 Jan 9.8 11:02:48 10° NE 11:09:00 - SSE 11:03:06 11° NE visible
25 Jan 8.0 12:35:22 10° NNW 12:43:02 - SW 12:37:09 21° NW visible
26 Jan 7.4 12:05:43 10° N 12:13:30 - SSW 12:08:05 37° NNW visible
27 Jan 7.9 11:36:34 10° NNE 11:43:57 - S 11:39:00 35° NE visible
28 Jan 9.3 11:08:01 10° NE 11:14:23 - SSE 11:09:56 19° ENE visible
28 Jan 7.8 12:41:00 10° NNW 12:43:48 21° WNW 12:44:00 21° WNW visible
29 Jan 6.6 12:11:11 10° N 12:14:43 51° WNW 12:14:58 49° W visible
30 Jan 7.0 11:41:54 10° NNE 11:45:29 60° E 11:45:59 53° SE visible
31 Jan 8.9 11:13:09 10° NE 11:16:08 23° E 11:17:05 21° ESE visible
31 Jan 8.0 12:46:32 10° NNW 12:49:05 18° WNW 12:51:11 12° WSW visible
